Regional Weather Roundup
Issued by NWS

Home | Current Version | Previous Version | Graphics & Text | Print | Product List | Glossary On
Versions: 1 2 3 4 5 6 7 8 9 10 11 12 13 14 15 16 17 18 19 20 21 22 23 24 25 26 27 28 29 30 31 32 33 34 35 36 37 38 39 40 41 42 43 44 45 46 47 48 49 50
000
ASUS43 KFSD 011302
RWRSD

WEATHER ROUNDUP FOR SOUTH DAKOTA
NATIONAL WEATHER SERVICE SIOUX FALLS SD
700 AM CST SUN MAR 01 2015

NOTE: "FAIR" INDICATES FEW OR NO CLOUDS BELOW 12,000 FEET WITH NO
SIGNIFICANT WEATHER AND/OR OBSTRUCTIONS TO VISIBILITY.


SDZ001>005-009-010-012>017-011400-
NORTHWEST AND NORTH CENTRAL SOUTH DAKOTA

CITY           SKY/WX    TMP DP  RH WIND       PRES   REMARKS
BUFFALO          N/A     11   6  81 W14       30.10R WCI  -5
FAITH            N/A     13   5  70 W13       30.20R WCI  -2
MOBRIDGE       CLEAR      4  -1  80 CALM      30.19S
$$

SDZ012>016-024>037-041>051-057-063-072>074-011400-
SOUTHWEST AND SOUTH CENTRAL SOUTH DAKOTA

CITY           SKY/WX    TMP DP  RH WIND       PRES   REMARKS
RAPID CTY ARPT CLEAR      7   5  91 CALM      30.22S
PIERRE         PTCLDY    13   6  74 W9        30.27R WCI   1
CUSTER         CLEAR      5   1  83 SW6       30.07R WCI  -6
ELLSWORTH AFB  PTCLDY    10   5  81 W2        30.21R
PHILIP         CLEAR     11   5  77 W7        30.28R WCI   0
PINE RIDGE     CLOUDY    16  11  80 CALM      30.24R
WINNER         CLOUDY    19  12  74 SW9       30.29R WCI   8
$$

SDZ004>011-016>023-039-040-011400-
NORTHEAST SOUTH DAKOTA

CITY           SKY/WX    TMP DP  RH WIND       PRES   REMARKS
ABERDEEN       CLEAR      0  -5  79 SW8       30.25S WCI -14
WATERTOWN      PTCLDY     4  -1  80 W8        30.22S WCI  -9
SISSETON         N/A      8   2  76 W13       30.23S WCI  -8
$$

SDZ017-020-022-023-036>040-048>070-011400-
SOUTHEAST SOUTH DAKOTA

CITY           SKY/WX    TMP DP  RH WIND       PRES   REMARKS
SIOUX FALLS    MOCLDY    12   8  84 W3        30.29R
HURON          MOCLDY    10   4  76 SW5       30.29S WCI   2
MITCHELL       CLOUDY    15   9  76 SW6       30.32R WCI   6
YANKTON        MOCLDY    16  10  79 W7        30.34R WCI   6
$$

ABBREVIATIONS USED IN REMARKS
   TC - TEMPERATURE IN CELSIUS
  WCI - WIND CHILL INDEX
   HX - HEAT INDEX
  VSB - VISIBILITY




USA.gov is the U.S. government's official web portal to all federal, state and local government web resources and services.